GW5295 Weather Reports


time (UTC)temp
C
wind
direction
speed
KPH
gust
KPH
rain 1hr
cm
rain 24hr
cm
rain mn
cm
humidity
%
barometer
mb
20260506051015 8 269 24.1 33.8 0.00 0.00 0.00 70 1017.7
20260506050520 8 275 25.7 33.8 0.00 0.00 0.00 69 1017.7
20260506045014 8 254 24.1 38.6 0.00 0.00 0.00 69 1017.5
20260506044551 8 267 27.4 40.2 0.00 0.00 0.00 68 1017.4
20260506044017 9 269 30.6 41.8 0.00 0.00 0.00 68 1017.2
20260506043515 9 253 29.0 41.8 0.00 0.00 0.00 67 1017.1
20260506043046 9 270 22.5 29.0 0.00 0.00 0.00 66 1017.2
20260506042516 10 267 19.3 27.4 0.00 0.00 0.00 66 1017.2
20260506042015 10 273 17.7 27.4 0.00 0.00 0.00 66 1017.0
20260506041552 10 264 19.3 25.7 0.00 0.00 0.00 66 1016.9
20260506041015 10 292 17.7 32.2 0.00 0.00 0.00 65 1016.9
20260506040519 10 262 24.1 32.2 0.00 0.00 0.00 64 1016.8
20260506040107 10 265 19.3 29.0 0.00 0.00 0.00 64 1016.3
20260506035518 10 279 20.9 32.2 0.00 0.00 0.00 63 1016.1
20260506035016 10 293 22.5 32.2 0.00 0.00 0.00 63 1015.9
20260506034549 11 273 20.9 33.8 0.00 0.00 0.00 61 1016.0
20260506034016 11 273 24.1 32.2 0.00 0.00 0.00 61 1015.8
20260506033515 11 278 24.1 32.2 0.00 0.00 0.00 60 1016.0
20260506033047 11 261 22.5 29.0 0.00 0.00 0.00 58 1015.8
20260506032516 11 267 17.7 27.4 0.00 0.00 0.00 58 1015.7
20260506032013 12 272 20.9 32.2 0.00 0.00 0.00 56 1015.8
20260506031549 12 273 22.5 32.2 0.00 0.00 0.00 54 1015.8
20260506031015 12 272 19.3 32.2 0.00 0.00 0.00 54 1015.8
20260506030515 12 280 22.5 32.2 0.00 0.00 0.00 55 1015.4
20260506030056 12 263 20.9 37.0 0.00 0.00 0.00 55 1015.5
20260506025516 12 272 24.1 37.0 0.00 0.00 0.00 55 1015.3
20260506025016 12 296 20.9 32.2 0.00 0.00 0.00 55 1015.3
20260506024557 12 266 24.1 32.2 0.00 0.00 0.00 54 1015.4
20260506024016 12 255 24.1 32.2 0.00 0.00 0.00 54 1015.2
20260506023520 13 245 20.9 33.8 0.00 0.00 0.00 52 1015.4
20260506023050 13 250 25.7 33.8 0.00 0.00 0.00 53 1015.2
20260506022518 13 257 24.1 30.6 0.00 0.00 0.00 52 1015.1
20260506022017 13 264 19.3 30.6 0.00 0.00 0.00 52 1015.4
20260506021559 13 224 24.1 35.4 0.00 0.00 0.00 51 1015.0
20260506021019 13 248 27.4 35.4 0.00 0.00 0.00 52 1014.9
20260506020515 13 246 22.5 32.2 0.00 0.00 0.00 53 1015.2
20260506020044 13 260 24.1 32.2 0.00 0.00 0.00 53 1015.1
20260506015514 13 260 19.3 29.0 0.00 0.00 0.00 53 1015.3
20260506015019 14 257 17.7 27.4 0.00 0.00 0.00 51 1015.3
20260506014558 14 250 20.9 30.6 0.00 0.00 0.00 50 1015.1
20260506014019 14 269 19.3 30.6 0.00 0.00 0.00 51 1015.1
20260506013517 14 274 17.7 29.0 0.00 0.00 0.00 50 1015.0
20260506013053 14 247 22.5 30.6 0.00 0.00 0.00 49 1014.7
20260506012515 15 252 22.5 30.6 0.00 0.00 0.00 50 1014.7
20260506012021 15 260 17.7 25.7 0.00 0.00 0.00 50 1014.9
20260506011603 15 209 16.1 19.3 0.00 0.00 0.00 50 1014.9
20260506011015 15 244 11.3 22.5 0.00 0.00 0.00 50 1015.0
20260506010519 15 245 14.5 29.0 0.00 0.00 0.00 52 1015.0
20260506010050 15 256 19.3 37.0 0.00 0.00 0.00 52 1014.9
20260506005515 15 260 19.3 29.0 0.00 0.00 0.00 53 1015.0
20260506005015 15 250 20.9 30.6 0.00 0.00 0.00 53 1014.9
20260506004550 15 242 20.9 30.6 0.00 0.00 0.00 53 1015.0
20260506004015 15 255 14.5 29.0 0.00 0.00 0.00 53 1015.1
20260506003516 15 260 16.1 37.0 0.00 0.00 0.00 53 1015.2
20260506003043 15 245 22.5 37.0 0.00 0.00 0.00 54 1014.9
20260506002514 15 252 24.1 33.8 0.00 0.00 0.00 53 1014.7
20260506002015 15 277 22.5 32.2 0.00 0.00 0.00 54 1014.8
20260506001546 15 269 22.5 32.2 0.00 0.00 0.00 53 1014.8
20260506001016 16 241 19.3 30.6 0.00 0.00 0.00 54 1014.9
20260506000514 16 271 17.7 25.7 0.00 0.00 0.00 52 1015.0
20260506000049 16 236 19.3 29.0 0.00 0.00 0.00 54 1014.8
20260505235515 16 246 19.3 30.6 0.00 0.00 0.00 53 1014.9
20260505235015 16 254 24.1 30.6 0.00 0.00 0.00 51 1014.8
20260505234545 16 261 14.5 25.7 0.00 0.00 0.00 50 1014.7
20260505234018 17 257 11.3 20.9 0.00 0.00 0.00 50 1014.9
20260505233516 16 240 16.1 20.9 0.00 0.00 0.00 51 1014.8
20260505233049 16 227 11.3 20.9 0.00 0.00 0.00 51 1014.8
20260505232517 16 254 9.7 25.7 0.00 0.00 0.00 51 1014.9
20260505232015 16 210 14.5 25.7 0.00 0.00 0.00 51 1014.9
20260505231601 16 222 11.3 24.1 0.00 0.00 0.00 51 1014.8
20260505231022 16 226 14.5 20.9 0.00 0.00 0.00 50 1014.7
20260505230515 16 215 14.5 22.5 0.00 0.00 0.00 50 1014.6
20260505230050 16 266 14.5 22.5 0.00 0.00 0.00 50 1014.6
20260505225516 16 259 12.9 25.7 0.00 0.00 0.00 50 1014.6
20260505225017 16 234 9.7 25.7 0.00 0.00 0.00 51 1014.9
20260505224544 16 261 9.7 29.0 0.00 0.00 0.00 51 1014.7
20260505224017 16 232 11.3 29.0 0.00 0.00 0.00 51 1015.0
20260505223521 16 244 14.5 46.7 0.00 0.00 0.00 52 1015.0
20260505223103 16 306 11.3 46.7 0.00 0.00 0.00 53 1015.1
20260505222515 16 276 25.7 35.4 0.00 0.00 0.00 52 1014.9
20260505222017 15 269 20.9 41.8 0.00 0.00 0.00 53 1014.9
20260505221553 16 267 22.5 41.8 0.00 0.00 0.00 52 1014.7
20260505221018 16 263 27.4 38.6 0.00 0.00 0.00 51 1014.6
20260505220517 16 251 27.4 41.8 0.00 0.00 0.00 51 1014.5
20260505220045 16 262 22.5 41.8 0.00 0.00 0.00 51 1014.4
20260505215518 16 265 20.9 38.6 0.00 0.00 0.00 52 1014.3
20260505215018 16 250 22.5 38.6 0.00 0.00 0.00 51 1014.6
20260505214606 16 229 20.9 41.8 0.00 0.00 0.00 52 1014.5
20260505214015 16 262 24.1 41.8 0.00 0.00 0.00 52 1014.3
20260505213518 16 261 24.1 37.0 0.00 0.00 0.00 53 1014.2
20260505213057 16 257 19.3 33.8 0.00 0.00 0.00 53 1014.3
20260505212521 16 200 24.1 37.0 0.00 0.00 0.00 54 1014.1
20260505212016 17 221 17.7 37.0 0.00 0.00 0.00 54 1014.0
20260505211556 17 255 24.1 32.2 0.00 0.00 0.00 53 1014.0
20260505211019 17 265 20.9 29.0 0.00 0.00 0.00 53 1013.9
20260505210520 17 270 17.7 29.0 0.00 0.00 0.00 52 1014.1
20260505210054 17 257 20.9 29.0 0.00 0.00 0.00 53 1013.9
20260505205517 17 254 20.9 27.4 0.00 0.00 0.00 53 1013.9
20260505205018 17 265 20.9 25.7 0.00 0.00 0.00 53 1014.1
20260505204547 17 346 6.4 17.7 0.00 0.00 0.00 56 1013.9
20260505204014 16 294 9.7 17.7 0.00 0.00 0.00 55 1014.0
20260505203518 17 300 11.3 17.7 0.00 0.00 0.00 55 1014.1
20260505203046 16 275 9.7 14.5 0.00 0.00 0.00 56 1014.0
20260505202517 17 312 9.7 16.1 0.00 0.00 0.00 55 1013.9
20260505202015 16 11 4.8 16.1 0.00 0.00 0.00 56 1013.9
20260505201554 16 346 4.8 14.5 0.00 0.00 0.00 56 1013.8
20260505201018 16 305 8.0 16.1 0.00 0.00 0.00 57 1013.7
20260505200704 16 330 8.0 16.1 0.00 0.00 0.00 58 1014.0
20260505200047 16 317 6.4 19.3 0.00 0.00 0.00 58 1014.0
20260505195515 16 322 12.9 20.9 0.00 0.00 0.00 58 1013.9
20260505195014 16 289 12.9 17.7 0.00 0.00 0.00 59 1013.8
20260505194538 15 286 11.3 22.5 0.00 0.00 0.00 59 1014.0
20260505194019 15 289 14.5 22.5 0.00 0.00 0.00 60 1013.9
20260505193518 15 290 14.5 20.9 0.00 0.00 0.00 60 1013.9
20260505193038 15 289 14.5 20.9 0.00 0.00 0.00 60 1013.9
20260505192519 15 279 16.1 20.9 0.00 0.00 0.00 60 1013.9
20260505192013 15 296 9.7 22.5 0.00 0.00 0.00 61 1013.9
20260505191543 15 292 12.9 22.5 0.00 0.00 0.00 62 1013.8
20260505191016 15 286 11.3 22.5 0.00 0.00 0.00 63 1013.8
20260505190514 15 298 12.9 19.3 0.00 0.00 0.00 64 1013.8
20260505190043 15 285 12.9 20.9 0.00 0.00 0.00 65 1013.8
20260505185516 14 280 14.5 22.5 0.00 0.00 0.00 64 1013.7
20260505185017 14 282 16.1 20.9 0.00 0.00 0.00 64 1013.6
20260505184537 15 309 14.5 20.9 0.00 0.00 0.00 63 1013.6
20260505184014 15 306 14.5 19.3 0.00 0.00 0.00 64 1013.6
20260505183516 15 295 12.9 17.7 0.00 0.00 0.00 64 1013.5
20260505183052 15 294 12.9 17.7 0.00 0.00 0.00 63 1013.5
20260505182517 15 287 12.9 17.7 0.00 0.00 0.00 61 1013.5
20260505182015 15 315 11.3 19.3 0.00 0.00 0.00 60 1013.5
20260505181539 16 306 9.7 19.3 0.00 0.00 0.00 60 1013.4
20260505181015 16 315 9.7 16.1 0.00 0.00 0.00 61 1013.4
20260505180514 15 321 4.8 17.7 0.00 0.00 0.00 62 1013.3
20260505180051 15 304 9.7 17.7 0.00 0.00 0.00 63 1013.2
20260505175513 14 277 11.3 17.7 0.00 0.00 0.00 65 1013.1
20260505175013 13 284 11.3 19.3 0.00 0.00 0.00 68 1013.2
20260505174545 13 284 12.9 17.7 0.00 0.00 0.00 72 1013.2
20260505174015 12 310 9.7 16.1 0.00 0.00 0.00 76 1013.2
20260505173519 12 294 9.7 16.1 0.00 0.00 0.00 76 1013.2
20260505173037 12 306 11.3 14.5 0.00 0.00 0.00 74 1013.1
20260505172513 13 281 8.0 14.5 0.00 0.00 0.00 74 1013.2
20260505172015 13 275 8.0 12.9 0.00 0.00 0.00 71 1013.0
20260505171548 13 271 4.8 11.3 0.00 0.00 0.00 72 1013.0
20260505171015 13 272 4.8 12.9 0.00 0.00 0.00 73 1013.1
20260505170514 13 284 9.7 12.9 0.00 0.00 0.00 72 1013.0
20260505170040 13 288 4.8 11.3 0.00 0.00 0.00 73 1013.0
20260505165514 12 275 6.4 11.3 0.00 0.00 0.00 74 1012.9
20260505165019 12 263 6.4 11.3 0.00 0.00 0.00 74 1012.9
20260505164538 12 263 6.4 9.7 0.00 0.00 0.00 73 1013.1
20260505164016 12 271 6.4 9.7 0.00 0.00 0.00 72 1013.0
20260505163515 12 275 4.8 9.7 0.00 0.00 0.00 71 1012.8
20260505163038 13 296 4.8 12.9 0.00 0.00 0.00 69 1012.7
20260505162514 14 279 8.0 12.9 0.00 0.00 0.00 65 1012.5
20260505162013 15 280 4.8 9.7 0.00 0.00 0.00 61 1012.6
20260505161537 16 65 0.0 4.8 0.00 0.00 0.00 61 1012.5
20260505161015 16 65 1.6 6.4 0.00 0.00 0.00 62 1012.8
20260505160516 15 65 3.2 6.4 0.00 0.00 0.00 63 1012.5
20260505153040 13 86 4.8 6.4 0.00 0.00 0.00 71 1012.2
20260505152515 12 71 1.6 6.4 0.00 0.00 0.00 74 1012.2
20260505152016 12 296 0.0 3.2 0.00 0.00 0.00 75 1012.4
20260505151538 11 296 0.0 3.2 0.00 0.00 0.00 76 1012.3
20260505151015 11 296 1.6 4.8 0.00 0.00 0.00 77 1012.3
20260505150525 11 296 1.6 6.4 0.00 0.00 0.00 77 1012.2
20260505140516 10 11 1.6 6.4 0.00 0.00 0.00 81 1011.7
20260505125013 13 98 1.6 6.4 0.00 0.00 0.00 57 1011.1
20260505124543 14 98 3.2 6.4 0.00 0.00 0.00 56 1010.8
20260505124017 14 98 3.2 12.9 0.00 0.00 0.00 55 1010.8
20260505123519 13 98 8.0 12.9 0.00 0.00 0.00 56 1010.8
20260505123048 13 97 6.4 11.3 0.00 0.00 0.00 60 1010.8
20260505122519 13 97 9.7 12.9 0.00 0.00 0.00 61 1010.8
20260505122015 12 103 8.0 12.9 0.00 0.00 0.00 62 1010.9
20260505121559 13 216 4.8 8.0 0.00 0.00 0.00 61 1011.0
20260505121015 12 216 3.2 4.8 0.00 0.00 0.00 63 1011.2
20260505120517 12 216 3.2 4.8 0.00 0.00 0.00 63 1011.1
20260505120056 12 216 0.0 6.4 0.00 0.00 0.00 63 1011.1
20260505115513 12 216 1.6 6.4 0.00 0.00 0.00 65 1011.1
20260505115020 12 216 4.8 6.4 0.00 0.00 0.00 63 1011.0
20260505114556 13 107 0.0 4.8 0.00 0.00 0.00 58 1011.1
20260505114015 14 107 0.0 0.0 0.00 0.00 0.00 56 1010.9
20260505113517 14 107 0.0 4.8 0.00 0.00 0.00 55 1010.9
20260505113059 14 107 1.6 4.8 0.00 0.00 0.00 55 1010.9
20260505112515 14 107 3.2 6.4 0.00 0.00 0.00 55 1011.0
20260505112432 14 107 4.8 6.4 0.00 0.00 0.00 54 1010.9
20260505111601 14 107 3.2 6.4 0.00 0.00 0.00 55 1010.9
20260505111022 14 107 3.2 4.8 0.00 0.00 0.00 56 1010.8
20260505110518 14 107 3.2 4.8 0.00 0.00 0.00 56 1010.9
20260505110112 14 107 3.2 4.8 0.00 0.00 0.00 57 1010.9
20260505102022 14 107 6.4 11.3 0.00 0.00 0.00 59 1010.9
20260505101556 14 107 8.0 11.3 0.00 0.00 0.00 60 1010.9
20260505101018 13 123 4.8 6.4 0.00 0.00 0.00 61 1010.9
20260505100520 13 123 3.2 4.8 0.00 0.00 0.00 61 1010.9
20260505100058 13 123 3.2 4.8 0.00 0.00 0.00 63 1010.8
20260505095519 12 271 1.6 6.4 0.00 0.00 0.00 65 1011.0
20260505095015 12 238 3.2 6.4 0.00 0.00 0.00 68 1011.1
20260505094926 13 272 3.2 11.3 0.00 0.00 0.00 67 1010.9
20260505094011 13 272 4.8 11.3 0.00 0.00 0.00 63 1011.1
20260505093515 15 250 4.8 8.0 0.00 0.00 0.00 55 1010.9
20260505093050 17 123 3.2 11.3 0.00 0.00 0.00 46 1010.8
20260505092518 16 103 6.4 11.3 0.00 0.00 0.00 46 1010.7
20260505092015 17 94 6.4 12.9 0.00 0.00 0.00 46 1010.6
20260505091547 17 88 8.0 12.9 0.00 0.00 0.00 46 1010.6
20260505091014 17 102 8.0 14.5 0.00 0.00 0.00 44 1010.7
20260505090512 17 119 8.0 16.1 0.00 0.00 0.00 44 1010.7
20260505090041 17 109 11.3 14.5 0.00 0.00 0.00 44 1010.5
20260505085517 17 111 9.7 14.5 0.00 0.00 0.00 44 1010.6
20260505085014 17 119 9.7 12.9 0.00 0.00 0.00 44 1010.6
20260505084541 17 111 9.7 12.9 0.00 0.00 0.00 44 1010.7
20260505084013 17 120 6.4 11.3 0.00 0.00 0.00 44 1010.6
20260505083512 17 115 6.4 9.7 0.00 0.00 0.00 43 1010.7
20260505083037 18 105 3.2 11.3 0.00 0.00 0.00 43 1010.7
20260505082516 18 105 4.8 11.3 0.00 0.00 0.00 43 1010.7
20260505082017 18 111 8.0 14.5 0.00 0.00 0.00 43 1010.7
20260505081544 18 105 8.0 14.5 0.00 0.00 0.00 43 1010.6
20260505081019 18 120 8.0 12.9 0.00 0.00 0.00 43 1010.6
20260505080514 18 128 9.7 16.1 0.00 0.00 0.00 43 1010.7
20260505080044 18 118 11.3 16.1 0.00 0.00 0.00 43 1010.7
20260505075515 18 113 9.7 16.1 0.00 0.00 0.00 43 1010.7
20260505075019 18 109 9.7 16.1 0.00 0.00 0.00 43 1010.7
20260505074539 18 115 11.3 14.5 0.00 0.00 0.00 43 1010.7
20260505074015 18 117 9.7 14.5 0.00 0.00 0.00 43 1010.7
20260505073518 18 132 9.7 14.5 0.00 0.00 0.00 43 1010.7
20260505073050 17 109 11.3 14.5 0.00 0.00 0.00 44 1010.7
20260505072514 17 121 8.0 12.9 0.00 0.00 0.00 46 1010.7
20260505072013 17 134 3.2 11.3 0.00 0.00 0.00 46 1010.6
20260505071549 17 122 4.8 11.3 0.00 0.00 0.00 45 1010.7
20260505071014 18 122 1.6 6.4 0.00 0.00 0.00 44 1010.8
20260505070521 18 122 3.2 6.4 0.00 0.00 0.00 44 1010.8
20260505070045 18 122 4.8 6.4 0.00 0.00 0.00 44 1010.8
20260505065513 18 96 4.8 6.4 0.00 0.00 0.00 44 1010.8
20260505065015 18 96 4.8 9.7 0.00 0.00 0.00 44 1010.7
20260505064541 18 96 3.2 9.7 0.00 0.00 0.00 46 1010.7
20260505064014 17 96 4.8 9.7 0.00 0.00 0.00 46 1010.7
20260505063515 18 96 4.8 9.7 0.00 0.00 0.00 45 1010.7
20260505063035 17 88 4.8 6.4 0.00 0.00 0.00 47 1010.6
20260505062515 17 88 3.2 9.7 0.00 0.00 0.00 48 1010.7
20260505062015 17 74 4.8 11.3 0.00 0.00 0.00 50 1010.6
20260505061537 16 95 3.2 11.3 0.00 0.00 0.00 53 1010.7
20260505061016 16 95 6.4 11.3 0.00 0.00 0.00 56 1010.7
20260505060510 16 82 4.8 8.0 0.00 0.00 0.00 59 1010.7
20260505055854 16 82 0.0 0.0 0.00 0.00 0.00 58 1010.9